Location: Ahstedt
(52.2048°N, 10.1060°E)
Time: 23:32:44
(UTC+00:00)

COSMO-SKYMED 1 - Pass Details

Date: 18 January 2026
Orbit: 578 x 579 km, 97.9° (Epoch: 7 February)

Event Time Altitude Azimuth Distance (km) Brightness Sun altitude
Rises 05:58:34 0° 209° (SSW) 2,788 5.8 -11.9°
Reaches altitude 10° 06:01:26 10° 231° (SW) 1,895 4.7 -11.4°
Maximum altitude 06:04:01 16° 271° (W) 1,541 4.0 -11.1°
Enters shadow 06:04:45 16° 284° (WNW) 1,574 4.0 -11.0°
